COSMOS 1275 DEB, 39965

Orbit data source: Space-Track

COSMOS 1275 DEB, 39965 is space debris in LEO originally from a launch on Thu, 04 Jun 1981 UTC launched from the Plesetsk Missile And Space Complex (PKMTR). Debris objects in space refer to the collection of defunct objects orbiting the Earth. Examples of debris include non-operational satellites, rocket bodies, and fragments generated from explosions, collisions, or faulty payload assembly.

Loading next visibility...
Identifier
39965, 1981-053PB
Orbit
LEO
Country
Flag of CISCIS
Related business
Manufacturer
Unknown
Mission
Spacecraft
Bus & Motor
Unknown
Mass
Unknown
Launch date (UTC)
1981-06-04 (45 years ago)
Launch vehicle
Unknown
Launch site
Plesetsk Missile And Space Complex (PKMTR)
Object type
Payload
Rocket body
Debris
Shape & HBR
Unknown shape, 0.1 m
Radar Cross Section
Small (<0.1 m²)

Expand to show TLE details & history
Last TLE update: 13 hours ago

TLE from 13 hours ago
0 COSMOS 1275 DEB
1 39965U 81053PB  26104.00569160  .00000523  00000-0  45046-3 0  9991
2 39965  82.9640 300.8643 0043612 163.6605 349.1374 13.84375866597733
Epoch: 2026-04-14T00:08Z
TLE epoch observation values (Epoch: 2026-04-14T00:08:11.754Z)
Latitude
27.11243°
Longitude
-86.97688°
Altitude
920.343 km
Speed
7.41 km/s
True Right ascension
07h 49m 02s
True Declination
26° 58' 35"
Sunlit
Object was in daylight at epoch
Visualization orbit readout
Latitude
Unknown
Longitude
Unknown
Altitude
Unknown
Speed
Unknown
Apparent Right ascension
Unknown
Apparent Declination
Unknown
Sunlit
N/A
Visualization observer readout
Local Sidereal Time
19:35:10
Azimuth
Unknown
Elevation
Unknown
Doppler factor
Unknown
Orbital elements
Apogee altitude
977.482 km
Perigee altitude
913.602 km
Semi-major axis
7,323.679 km
Eccentricity
0.00436
Inclination
82.964°
RAAN
300.8643°
Arg. of periapsis
163.6605°
True anomaly
349.04271°
Mean anomaly
349.1374°
Eccentric anomaly
349.09011°
Mean motion
3.46297 °/min
Orbital period
103.96 mins
BSTAR
0.00045046
Loading maneuver chart data...
Computing Atmospheric mass density...
Loading historical data...
Loading historical data...
Loading historical data...
Loading historical data...
Loading historical data...
Loading historical data...
Loading historical data...

Documentation

Showing up to 5 results
|